Location: Laporte
(40.6264°N, 105.1378°W)
Time: 15:21:32
(UTC+00:00)

Envisat - Pass Details

Date: 16 August 2022
Orbit: 764 x 765 km, 98.2° (Epoch: 26 September)

Event Time Altitude Azimuth Distance (km) Brightness Sun altitude
Rises 10:31:46 0° 26° (NNE) 3,239 7.4 -17.6°
Reaches altitude 10° 10:34:28 10° 39° (NE) 2,307 6.7 -17.2°
Maximum altitude 10:38:39 25° 94° (E) 1,500 5.1 -16.6°
Drops below altitude 10° 10:42:47 10° 150° (SSE) 2,293 5.4 -15.9°
Sets 10:45:27 0° 163° (SSE) 3,214 6.1 -15.5°
